Weather Roundup
Issued by NWS Springfield, MO

Home | Current Version | Previous Version | Text Only | Print | Product List | Glossary On
Versions: 1 2 3 4 5 6 7 8 9 10 11 12 13 14 15 16 17 18 19 20 21 22 23 24 25 26 27 28 29 30 31 32 33 34 35 36 37 38 39 40 41 42 43 44 45 46 47 48 49 50
950
NZUS99 KSGF 270807
HRRSGF

HOURLY WEATHER
NATIONAL WEATHER SERVICE SPRINGFIELD MO
200 AM CST MON FEB 27 2017

......SGF CWA......

CITY           SKY/WX    TMP DP  RH WIND       PRES   REMARKS
SPRINGFIELD    CLEAR     38  27  64 SE9       30.01S WCI  31
JOPLIN         CLEAR     33  31  92 CALM      30.01R
WEST PLAINS    CLOUDY    43  26  51 E3        30.05S
ROLLA          PTCLDY    37  33  85 SE8       30.03S WCI  31
OSAGE BEACH    CLEAR     33  32  96 E3        30.05S
BRANSON        CLOUDY    39  30  70 CALM      30.03S

......SURROUNDING SGF CWA......

CITY           SKY/WX    TMP DP  RH WIND       PRES   REMARKS
CHANUTE        CLEAR     25  25 100 E3        30.01S FOG
PARSONS        CLEAR     34  31  88 E5        30.01S WCI  30
COFFEYVILLE    CLEAR     30  28  92 NE5       30.01S WCI  25
EMPORIA        PTCLDY    28  26  92 CALM      29.99F
GROVE OK       CLEAR     34  32  93 CALM      30.01S
ROGERS AR      PTCLDY    40  32  73 E8        30.00F WCI  34
SILOAM SPRINGS CLEAR     39  28  65 E6        29.99S WCI  35
HARRISON AR    CLEAR     38  29  70 SE3       30.02S
NEAR YELLVILLE CLEAR     45  27  49 CALM      30.02S

......KANSAS AND MISSOURI......

CITY           SKY/WX    TMP DP  RH WIND       PRES   REMARKS
KANSAS CTY INT CLEAR     34  33  96 CALM      30.03R
DOWNTOWN KC    CLEAR     35  34  96 CALM      30.03S
COLUMBIA       CLEAR     35  34  96 E7        30.05S WCI  29
SEDALIA        CLEAR     32  30  92 E3        30.05S FOG
ST JOSEPH      FOG       28  28 100 S5        30.04R VSB<1/4 WCI  23
ST LOUIS       CLOUDY    42  35  76 E5        30.10S
SPIRIT OF STL  PTCLDY    36  34  92 CALM      30.09S
KIRKSVILLE     FOG       30  30 100 CALM      30.06S VSB 1/4
WICHITA        PTCLDY    35  27  72 E7        29.96F WCI  29
TOPEKA         FOG       27  26  96 CALM      30.02S VSB 1/2
OLATHE         FOG       32  32 100 CALM      30.02S VSB 1

......TENNESSEE......

CITY           SKY/WX    TMP DP  RH WIND       PRES   REMARKS
MEMPHIS        RAIN      50  42  74 NE3       30.12F
NASHVILLE      CLOUDY    48  29  47 N7        30.20R

......ARKANSAS.......

CITY           SKY/WX    TMP DP  RH WIND       PRES   REMARKS
FAYETTEVILLE   CLEAR     32  29  88 CALM      30.00F
FT SMITH       PTCLDY    46  34  62 E6        30.01R
LITTLE ROCK    CLOUDY    47  47 100 N7        30.03S

......OKLAHOMA.......

CITY           SKY/WX    TMP DP  RH WIND       PRES   REMARKS
TULSA          PTCLDY    38  34  85 CALM      29.97F
PONCA CITY     CLEAR     40  31  70 E10       29.95S WCI  33
MCALESTER      CLOUDY    50  36  58 E5        29.97F
OKLAHOMA CITY  PTCLDY    41  35  79 E6        29.92S

......IOWA............

CITY           SKY/WX    TMP DP  RH WIND       PRES   REMARKS
DES MOINES     PTCLDY    32  22  66 CALM      30.03S
QUAD CITIES    CLEAR     29  26  89 CALM      30.07R

......ILLINOIS........

CITY           SKY/WX    TMP DP  RH WIND       PRES   REMARKS
QUINCY         MOCLDY    34  32  92 S5        30.07F WCI  30
CHICAGO        PTCLDY    34  24  67 CALM      30.08R




USA.gov is the U.S. government's official web portal to all federal, state and local government web resources and services.